DW3016 Weather Reports


Display with metric or nautical units.
time (UTC)temp
F
wind
direction
speed
MPH
gust
MPH
rain 1hr
in
rain 24hr
in
rain mn
in
humidity
%
barometer
mb
20260507104815 44 191 0.0 1.0 0.00 0.00 0.00 58 1012.1
20260507104311 44 147 2.0 2.0 0.00 0.00 0.00 58 1012.2
20260507103807 44 173 1.0 1.0 0.00 0.00 0.00 58 1012.3
20260507103304 44 156 1.0 1.0 0.00 0.00 0.00 58 1012.4
20260507102800 44 199 0.0 1.0 0.00 0.00 0.00 58 1012.4
20260507102257 44 209 0.0 1.0 0.00 0.00 0.00 58 1012.4
20260507101753 44 198 1.0 1.0 0.00 0.00 0.00 57 1012.5
20260507101254 44 168 0.0 2.0 0.00 0.00 0.00 58 1012.5
20260507100751 44 179 1.0 2.0 0.00 0.00 0.00 58 1012.6
20260507100249 44 206 0.0 1.0 0.00 0.00 0.00 58 1012.7
20260507095747 44 194 0.0 0.0 0.00 0.00 0.00 58 1012.7
20260507095243 44 188 0.0 0.0 0.00 0.00 0.00 58 1012.7
20260507094740 44 188 0.0 1.0 0.00 0.00 0.00 58 1012.9
20260507094237 44 174 1.0 2.0 0.00 0.00 0.00 57 1013.3
20260507093734 44 193 1.0 2.0 0.00 0.00 0.00 57 1013.3
20260507093232 45 159 1.0 2.0 0.00 0.00 0.00 56 1013.2
20260507092730 45 220 0.0 2.0 0.00 0.00 0.00 56 1013.4
20260507092226 45 154 2.0 2.0 0.00 0.00 0.00 54 1013.4
20260507091722 45 198 1.0 1.0 0.00 0.00 0.00 55 1013.9
20260507091219 45 198 1.0 1.0 0.00 0.00 0.00 55 1013.9
20260507090719 45 214 0.0 2.0 0.00 0.00 0.00 56 1013.7
20260507090216 45 178 1.0 1.0 0.00 0.00 0.00 56 1013.9
20260507085713 45 209 0.0 0.0 0.00 0.00 0.00 56 1013.7
20260507085210 45 197 0.0 1.0 0.00 0.00 0.00 55 1013.8
20260507084707 45 199 0.0 0.0 0.00 0.00 0.00 55 1013.9
20260507084204 45 191 0.0 1.0 0.00 0.00 0.00 54 1013.8
20260507083701 45 189 0.0 1.0 0.00 0.00 0.00 54 1014.0
20260507083158 45 211 0.0 1.0 0.00 0.00 0.00 55 1014.0
20260507082654 44 195 0.0 1.0 0.00 0.00 0.00 55 1014.0
20260507082150 44 188 0.0 0.0 0.00 0.00 0.00 55 1014.2
20260507081647 44 202 0.0 1.0 0.00 0.00 0.00 55 1014.1
20260507081143 44 194 1.0 2.0 0.00 0.00 0.00 55 1014.1
20260507080639 44 169 1.0 1.0 0.00 0.00 0.00 56 1014.2
20260507080136 44 175 1.0 1.0 0.00 0.00 0.00 56 1014.1
20260507075631 44 204 0.0 1.0 0.00 0.00 0.00 56 1014.3
20260507075127 44 195 1.0 1.0 0.00 0.00 0.00 56 1014.2
20260507074624 44 184 0.0 1.0 0.00 0.00 0.00 57 1014.5
20260507074123 44 207 1.0 1.0 0.00 0.00 0.00 57 1014.4
20260507073619 44 209 0.0 1.0 0.00 0.00 0.00 57 1014.3
20260507073115 44 188 1.0 1.0 0.00 0.00 0.00 57 1014.5
20260507072613 43 173 1.0 1.0 0.00 0.00 0.00 57 1014.4
20260507072109 43 200 0.0 1.0 0.00 0.00 0.00 57 1014.5
20260507071607 43 201 0.0 1.0 0.00 0.00 0.00 58 1014.7
20260507071103 43 189 1.0 1.0 0.00 0.00 0.00 58 1014.6
20260507070600 43 169 0.0 1.0 0.00 0.00 0.00 58 1014.8
20260507070057 43 204 0.0 1.0 0.00 0.00 0.00 58 1014.7
20260507065554 43 182 0.0 0.0 0.00 0.00 0.00 59 1014.6
20260507065051 43 181 0.0 1.0 0.00 0.00 0.00 58 1015.0
20260507064549 43 196 0.0 0.0 0.00 0.00 0.00 59 1014.7
20260507064047 43 193 0.0 0.0 0.00 0.00 0.00 58 1014.9
20260507063544 43 196 0.0 0.0 0.00 0.00 0.00 58 1014.7
20260507063041 43 179 0.0 1.0 0.00 0.00 0.00 58 1015.1
20260507062538 43 190 0.0 1.0 0.00 0.00 0.00 59 1014.8
20260507062035 43 191 0.0 1.0 0.00 0.00 0.00 59 1015.1
20260507061533 43 179 1.0 1.0 0.00 0.00 0.00 59 1015.1
20260507061031 43 190 0.0 1.0 0.00 0.00 0.00 58 1015.0
20260507060529 43 182 0.0 1.0 0.00 0.00 0.00 58 1015.2
20260507060025 43 189 0.0 1.0 0.00 0.00 0.00 58 1015.1
20260507055525 43 180 0.0 1.0 0.00 0.00 0.00 58 1015.2
20260507055022 43 173 0.0 1.0 0.00 0.00 0.00 57 1015.3
20260507054518 43 180 1.0 1.0 0.00 0.00 0.00 57 1015.2
20260507054015 43 205 0.0 1.0 0.00 0.00 0.00 57 1015.2
20260507053513 43 200 0.0 1.0 0.00 0.00 0.00 57 1015.3
20260507053012 43 206 0.0 1.0 0.00 0.00 0.00 57 1015.3
20260507052509 44 201 0.0 1.0 0.00 0.00 0.00 57 1015.2
20260507052005 43 183 1.0 1.0 0.00 0.00 0.00 57 1015.4
20260507051503 43 186 0.0 0.0 0.00 0.00 0.00 58 1015.2
20260507050959 43 194 0.0 1.0 0.00 0.00 0.00 58 1015.2
20260507050456 42 180 0.0 1.0 0.00 0.00 0.00 59 1015.5
20260507045953 41 197 0.0 0.0 0.00 0.00 0.00 63 1015.2
20260507045449 41 201 0.0 0.0 0.00 0.00 0.00 62 1015.3
20260507044947 41 201 0.0 0.0 0.00 0.00 0.00 61 1015.5
20260507044444 42 201 0.0 0.0 0.00 0.00 0.00 61 1015.6
20260507043940 42 201 0.0 0.0 0.00 0.00 0.00 60 1015.5
20260507043436 42 211 0.0 0.0 0.00 0.00 0.00 61 1015.6
20260507042932 42 198 0.0 0.0 0.00 0.00 0.00 61 1015.8
20260507042429 42 198 0.0 0.0 0.00 0.00 0.00 61 1015.6
20260507041925 42 198 0.0 0.0 0.00 0.00 0.00 62 1015.8
20260507041422 42 198 0.0 0.0 0.00 0.00 0.00 61 1015.6
20260507040920 42 198 0.0 0.0 0.00 0.00 0.00 61 1015.7
20260507040415 42 198 0.0 0.0 0.00 0.00 0.00 61 1015.7
20260507035911 42 198 0.0 0.0 0.00 0.00 0.00 60 1015.8
20260507035408 43 198 0.0 0.0 0.00 0.00 0.00 60 1015.8
20260507034904 43 198 0.0 0.0 0.00 0.00 0.00 59 1016.0
20260507034401 43 201 0.0 0.0 0.00 0.00 0.00 58 1015.8
20260507033859 44 201 0.0 0.0 0.00 0.00 0.00 57 1015.9
20260507033357 44 201 0.0 0.0 0.00 0.00 0.00 56 1015.8
20260507032854 45 201 0.0 0.0 0.00 0.00 0.00 55 1015.9
20260507032350 45 196 0.0 0.0 0.00 0.00 0.00 54 1016.0
20260507031847 45 200 0.0 0.0 0.00 0.00 0.00 53 1016.0
20260507031344 45 199 0.0 0.0 0.00 0.00 0.00 53 1016.0
20260507030840 45 200 0.0 0.0 0.00 0.00 0.00 52 1016.1
20260507030338 46 200 0.0 0.0 0.00 0.00 0.00 51 1016.1
20260507025834 46 202 0.0 0.0 0.00 0.00 0.00 48 1016.0
20260507025332 46 202 0.0 0.0 0.00 0.00 0.00 48 1016.1
20260507024830 46 202 0.0 0.0 0.00 0.00 0.00 48 1016.1
20260507024327 46 202 0.0 0.0 0.00 0.00 0.00 48 1016.3
20260507023822 46 202 0.0 0.0 0.00 0.00 0.00 47 1016.0
20260507023319 46 202 0.0 0.0 0.00 0.00 0.00 47 1016.0
20260507022816 47 202 0.0 0.0 0.00 0.00 0.00 47 1016.0
20260507022313 47 204 0.0 0.0 0.00 0.00 0.00 46 1016.0
20260507021809 47 198 0.0 0.0 0.00 0.00 0.00 46 1015.9
20260507021304 48 203 0.0 0.0 0.00 0.00 0.00 45 1016.0
20260507020803 48 205 0.0 0.0 0.00 0.00 0.00 45 1015.7
20260507020259 48 206 0.0 0.0 0.00 0.00 0.00 44 1015.9
20260507015756 48 205 0.0 0.0 0.00 0.00 0.00 43 1015.8
20260507015254 49 208 0.0 0.0 0.00 0.00 0.00 42 1015.8
20260507014751 49 201 0.0 0.0 0.00 0.00 0.00 43 1015.6
20260507014247 50 201 0.0 0.0 0.00 0.00 0.00 42 1015.8
20260507013743 50 200 0.0 0.0 0.00 0.00 0.00 40 1015.8
20260507013241 50 231 0.0 1.0 0.00 0.00 0.00 40 1015.7
20260507012738 50 211 0.0 0.0 0.00 0.00 0.00 39 1015.8
20260507012233 51 207 1.0 1.0 0.00 0.00 0.00 39 1015.7
20260507011732 51 202 0.0 1.0 0.00 0.00 0.00 39 1015.6
20260507011228 52 207 1.0 4.0 0.00 0.00 0.00 39 1015.8
20260507010727 52 209 0.0 0.0 0.00 0.00 0.00 38 1015.7
20260507010223 53 219 0.0 1.0 0.00 0.00 0.00 37 1015.6
20260507005721 53 297 2.0 2.0 0.00 0.00 0.00 37 1015.6
20260507005217 53 218 1.0 2.0 0.00 0.00 0.00 36 1015.7
20260507004714 53 230 0.0 4.0 0.00 0.00 0.00 36 1015.8
20260507004212 53 248 0.0 1.0 0.00 0.00 0.00 36 1015.8
20260507003708 53 251 1.0 3.0 0.00 0.00 0.00 36 1015.9
20260507003203 54 226 1.0 2.0 0.00 0.00 0.00 36 1015.9
20260507002659 54 232 2.0 3.0 0.00 0.00 0.00 36 1015.8
20260507002155 54 217 1.0 2.0 0.00 0.00 0.00 36 1016.0
20260507001652 54 237 2.0 4.0 0.00 0.00 0.00 35 1015.9
20260507001150 54 257 2.0 6.0 0.00 0.00 0.00 35 1016.0
20260507000646 55 240 1.0 3.0 0.00 0.00 0.00 35 1016.1
20260507000141 55 250 2.0 4.0 0.00 0.00 0.00 36 1016.1
20260506235639 55 296 3.0 3.0 0.00 0.00 0.00 35 1016.1
20260506235139 55 214 1.0 6.0 0.00 0.00 0.00 34 1016.1
20260506234637 55 318 3.0 6.0 0.00 0.00 0.00 34 1016.1
20260506234134 56 289 3.0 7.0 0.00 0.00 0.00 34 1016.1
20260506233630 56 153 4.0 8.0 0.00 0.00 0.00 33 1016.3
20260506233128 56 231 1.0 4.0 0.00 0.00 0.00 33 1016.3
20260506232624 55 191 0.0 2.0 0.00 0.00 0.00 34 1016.0
20260506232119 56 207 0.0 4.0 0.00 0.00 0.00 34 1016.1
20260506231617 56 334 3.0 6.0 0.00 0.00 0.00 33 1016.3
20260506231115 56 202 3.0 6.0 0.00 0.00 0.00 34 1016.4
20260506230611 57 337 7.0 8.0 0.00 0.00 0.00 33 1016.4
20260506230109 57 342 3.0 6.0 0.00 0.00 0.00 32 1016.5
20260506225605 56 258 6.0 8.0 0.00 0.00 0.00 34 1016.6
20260506225101 56 16 2.0 4.0 0.00 0.00 0.00 33 1016.5
20260506224558 56 224 2.0 6.0 0.00 0.00 0.00 34 1016.5
20260506224055 55 228 1.0 6.0 0.00 0.00 0.00 35 1016.6
20260506223551 56 202 2.0 7.0 0.00 0.00 0.00 33 1016.5
20260506223047 58 234 4.0 6.0 0.00 0.00 0.00 32 1016.5
20260506222544 58 95 1.0 7.0 0.00 0.00 0.00 34 1016.4
20260506222041 58 253 1.0 4.0 0.00 0.00 0.00 34 1016.6
20260506221538 57 208 1.0 7.0 0.00 0.00 0.00 34 1016.5
20260506221036 57 174 2.0 9.0 0.00 0.00 0.00 34 1016.6
20260506220532 57 298 3.0 7.0 0.00 0.00 0.00 33 1016.6
20260506220028 57 5 2.0 6.0 0.00 0.00 0.00 35 1016.6
20260506215525 57 294 6.0 10.0 0.00 0.00 0.00 35 1016.8
20260506215020 57 336 2.0 6.0 0.00 0.00 0.00 35 1016.7
20260506214518 57 314 3.0 6.0 0.00 0.00 0.00 34 1016.6
20260506214015 56 315 4.0 8.0 0.00 0.00 0.00 35 1016.6
20260506213513 57 138 2.0 4.0 0.00 0.00 0.00 34 1016.6
20260506213009 56 328 2.0 7.0 0.00 0.00 0.00 35 1016.5
20260506212506 57 296 4.0 6.0 0.00 0.00 0.00 33 1016.5
20260506212000 57 23 2.0 4.0 0.00 0.00 0.00 36 1016.6
20260506211457 56 257 5.0 8.0 0.00 0.00 0.00 34 1016.8
20260506210954 56 227 4.0 6.0 0.00 0.00 0.00 35 1016.7
20260506210450 58 310 3.0 7.0 0.00 0.00 0.00 34 1016.8
20260506205948 58 263 1.0 4.0 0.00 0.00 0.00 33 1016.9
20260506205443 57 247 3.0 3.0 0.00 0.00 0.00 34 1016.9
20260506204939 57 219 1.0 4.0 0.00 0.00 0.00 34 1016.8
20260506204438 56 301 6.0 11.0 0.00 0.00 0.00 34 1017.1
20260506203935 56 195 2.0 7.0 0.00 0.00 0.00 35 1017.0
20260506203432 57 258 2.0 7.0 0.00 0.00 0.00 33 1017.1
20260506202929 56 205 3.0 4.0 0.00 0.00 0.00 34 1016.9
20260506202426 55 212 1.0 6.0 0.00 0.00 0.00 37 1017.2
20260506201922 56 207 2.0 6.0 0.00 0.00 0.00 36 1017.1
20260506201420 58 179 5.0 8.0 0.00 0.00 0.00 32 1017.2
20260506200916 58 359 3.0 6.0 0.00 0.00 0.00 34 1017.1
20260506200413 57 292 2.0 4.0 0.00 0.00 0.00 34 1017.4
20260506195909 57 213 1.0 14.0 0.00 0.00 0.00 35 1017.4
20260506195407 56 236 1.0 4.0 0.00 0.00 0.00 35 1017.3
20260506194903 56 277 2.0 6.0 0.00 0.00 0.00 36 1017.4
20260506194400 57 186 6.0 9.0 0.00 0.00 0.00 34 1017.3
20260506193857 57 334 3.0 6.0 0.00 0.00 0.00 36 1017.3
20260506193354 56 302 2.0 6.0 0.00 0.00 0.00 35 1017.3
20260506192850 56 289 5.0 7.0 0.00 0.00 0.00 35 1017.5
20260506192347 55 25 1.0 2.0 0.00 0.00 0.00 36 1017.4
20260506191844 56 337 4.0 7.0 0.00 0.00 0.00 35 1017.6
20260506191341 56 264 4.0 8.0 0.00 0.00 0.00 35 1017.5
20260506190838 56 266 3.0 8.0 0.00 0.00 0.00 36 1017.4
20260506190334 56 359 2.0 6.0 0.00 0.00 0.00 37 1017.7
20260506185831 56 341 2.0 6.0 0.00 0.00 0.00 37 1017.6
20260506185328 56 236 6.0 10.0 0.00 0.00 0.00 36 1017.7
20260506184825 56 208 3.0 4.0 0.00 0.00 0.00 36 1017.8
20260506184322 55 161 2.0 8.0 0.00 0.00 0.00 37 1017.7
20260506183820 55 306 4.0 7.0 0.00 0.00 0.00 36 1017.8
20260506183314 55 86 2.0 7.0 0.00 0.00 0.00 37 1018.0
20260506182812 55 105 1.0 3.0 0.00 0.00 0.00 38 1017.9
20260506182309 57 240 3.0 4.0 0.00 0.00 0.00 36 1017.8
20260506181807 55 269 2.0 6.0 0.00 0.00 0.00 38 1017.9
20260506181304 54 259 4.0 9.0 0.00 0.00 0.00 38 1017.9
20260506180802 54 203 2.0 9.0 0.00 0.00 0.00 38 1017.9
20260506180257 55 234 2.0 4.0 0.00 0.00 0.00 37 1018.0
20260506175753 55 18 1.0 3.0 0.00 0.00 0.00 36 1018.0
20260506175251 54 279 2.0 2.0 0.00 0.00 0.00 39 1018.1
20260506174748 53 219 1.0 2.0 0.00 0.00 0.00 39 1018.1
20260506174245 53 210 1.0 4.0 0.00 0.00 0.00 40 1018.3
20260506173743 53 268 4.0 6.0 0.00 0.00 0.00 39 1018.3
20260506173240 52 269 2.0 13.0 0.00 0.00 0.00 40 1018.3
20260506172736 53 287 2.0 8.0 0.00 0.00 0.00 39 1018.3
20260506172233 53 251 2.0 8.0 0.00 0.00 0.00 40 1018.5
20260506171731 51 193 1.0 7.0 0.00 0.00 0.00 41 1018.5
20260506171228 51 227 1.0 4.0 0.00 0.00 0.00 41 1018.5
20260506170725 51 264 3.0 6.0 0.00 0.00 0.00 40 1018.3
20260506170222 51 264 2.0 3.0 0.00 0.00 0.00 40 1018.5
20260506165720 52 203 2.0 4.0 0.00 0.00 0.00 40 1018.5
20260506165217 52 285 1.0 7.0 0.00 0.00 0.00 40 1018.5
20260506164714 53 259 4.0 7.0 0.00 0.00 0.00 40 1018.5
20260506164211 52 326 1.0 6.0 0.00 0.00 0.00 41 1018.4
20260506163707 51 177 2.0 6.0 0.00 0.00 0.00 41 1018.4
20260506163202 51 13 4.0 10.0 0.00 0.00 0.00 40 1018.3
20260506162659 51 251 1.0 2.0 0.00 0.00 0.00 40 1018.4
20260506162156 53 173 2.0 9.0 0.00 0.00 0.00 39 1018.2
20260506161653 51 267 4.0 4.0 0.00 0.00 0.00 41 1018.4
20260506161150 51 223 1.0 6.0 0.00 0.00 0.00 41 1018.3
20260506160648 52 266 4.0 8.0 0.00 0.00 0.00 39 1018.2
20260506160145 51 194 2.0 3.0 0.00 0.00 0.00 42 1018.3
20260506155643 51 236 3.0 4.0 0.00 0.00 0.00 41 1018.3
20260506155139 53 229 1.0 3.0 0.00 0.00 0.00 40 1018.2
20260506153236 51 236 1.0 4.0 0.00 0.00 0.00 45 1018.1
20260506152733 52 120 3.0 7.0 0.00 0.00 0.00 42 1018.1
20260506152230 53 274 0.0 3.0 0.00 0.00 0.00 43 1018.2
20260506151729 52 294 1.0 3.0 0.00 0.00 0.00 43 1018.1
20260506151225 52 253 2.0 4.0 0.00 0.00 0.00 43 1018.2
20260506150722 52 298 2.0 4.0 0.00 0.00 0.00 41 1018.1
20260506150219 52 165 1.0 2.0 0.00 0.00 0.00 44 1018.1
20260506145716 51 252 2.0 3.0 0.00 0.00 0.00 44 1018.1
20260506145212 51 273 2.0 6.0 0.00 0.00 0.00 43 1018.1
20260506144710 52 196 1.0 4.0 0.00 0.00 0.00 43 1018.1
20260506144207 51 203 2.0 4.0 0.00 0.00 0.00 44 1018.3
20260506143704 51 202 2.0 3.0 0.00 0.00 0.00 43 1018.1
20260506143202 50 14 2.0 3.0 0.00 0.00 0.00 44 1018.1
20260506142700 50 272 2.0 3.0 0.00 0.00 0.00 43 1018.0
20260506142158 50 346 1.0 2.0 0.00 0.00 0.00 44 1018.1
20260506141655 50 327 2.0 3.0 0.00 0.00 0.00 44 1018.0
20260506141153 50 346 2.0 2.0 0.00 0.00 0.00 44 1017.9
20260506140651 50 234 1.0 4.0 0.00 0.00 0.00 44 1017.9
20260506140148 49 203 1.0 2.0 0.00 0.00 0.00 46 1018.0
20260506135644 49 125 1.0 3.0 0.00 0.00 0.00 45 1018.0
20260506135141 48 343 2.0 3.0 0.00 0.00 0.00 45 1017.9
20260506134637 48 232 2.0 6.0 0.00 0.00 0.00 47 1017.8
20260506134133 48 277 3.0 4.0 0.00 0.00 0.00 48 1017.7
20260506133631 47 313 2.0 3.0 0.00 0.00 0.00 48 1017.8
20260506133128 47 7 2.0 4.0 0.00 0.00 0.00 48 1017.5
20260506132625 47 324 2.0 4.0 0.00 0.00 0.00 49 1017.5
20260506132122 46 210 2.0 3.0 0.00 0.00 0.00 51 1017.6
20260506131619 46 32 1.0 3.0 0.00 0.00 0.00 53 1017.5
20260506131115 45 298 2.0 4.0 0.00 0.00 0.00 53 1017.6
20260506130613 45 304 2.0 3.0 0.00 0.00 0.00 55 1017.4
20260506130110 44 288 2.0 4.0 0.00 0.00 0.00 54 1017.6
20260506125608 44 235 1.0 2.0 0.00 0.00 0.00 56 1017.4
20260506125106 43 223 0.0 2.0 0.00 0.00 0.00 57 1017.3
20260506124603 43 245 1.0 2.0 0.00 0.00 0.00 59 1017.5
20260506124101 42 243 0.0 1.0 0.00 0.00 0.00 60 1017.2
20260506123558 41 214 0.0 0.0 0.00 0.00 0.00 61 1017.1
20260506123057 41 207 0.0 1.0 0.00 0.00 0.00 61 1017.3
20260506122553 41 221 0.0 1.0 0.00 0.00 0.00 63 1017.2
20260506122051 40 222 0.0 1.0 0.00 0.00 0.00 64 1016.9
20260506121548 40 247 0.0 1.0 0.00 0.00 0.00 64 1017.1
20260506121044 40 226 0.0 1.0 0.00 0.00 0.00 64 1017.1
20260506120543 40 239 1.0 2.0 0.00 0.00 0.00 64 1016.9
20260506120039 39 223 1.0 1.0 0.00 0.00 0.00 64 1016.7
20260506115537 39 275 1.0 1.0 0.00 0.00 0.00 64 1016.8
20260506115036 39 200 0.0 1.0 0.00 0.00 0.00 65 1016.7
20260506114533 39 227 1.0 1.0 0.00 0.00 0.00 64 1016.9
20260506114031 39 203 0.0 1.0 0.00 0.00 0.00 65 1016.7
20260506113529 39 234 1.0 1.0 0.00 0.00 0.00 65 1016.5
20260506113026 39 224 0.0 1.0 0.00 0.00 0.00 64 1016.4
20260506112522 39 253 0.0 1.0 0.00 0.00 0.00 63 1016.4
20260506112019 39 224 0.0 2.0 0.00 0.00 0.00 63 1016.3
20260506111518 40 223 0.0 1.0 0.00 0.00 0.00 63 1016.3
20260506111014 40 248 0.0 1.0 0.00 0.00 0.00 62 1016.4
20260506110512 40 221 0.0 0.0 0.00 0.00 0.00 62 1016.0
20260506110009 40 205 0.0 0.0 0.00 0.00 0.00 62 1015.8
20260506105505 40 226 0.0 2.0 0.00 0.00 0.00 62 1016.0
20260506105003 40 247 0.0 0.0 0.00 0.00 0.00 62 1015.9